TimeEST,TemperatureF,Dew PointF,Humidity,Sea Level PressureIn,VisibilityMPH,Wind Direction,Wind SpeedMPH,Gust SpeedMPH,PrecipitationIn,Events,Conditions,WindDirDegrees,DateUTC
12:51 AM,17.1,9.0,71,30.01,4.0,West,21.9,28.8,0.00,Snow,Light Snow,270,2013-02-20 05:51:00
1:33 AM,15.8,8.6,73,29.96,5.0,West,20.7,26.5,0.00,Snow,Light Snow,270,2013-02-20 06:33:00
1:51 AM,16.0,9.0,74,30.02,7.0,West,11.5,23.0,0.00,Snow,Light Snow,260,2013-02-20 06:51:00
2:51 AM,17.1,8.1,68,30.01,9.0,West,13.8,24.2,0.00,,Overcast,260,2013-02-20 07:51:00
3:51 AM,17.1,8.1,68,30.02,5.0,West,16.1,25.3,0.00,Snow,Light Snow,270,2013-02-20 08:51:00
4:51 AM,17.1,8.1,68,30.04,5.0,West,16.1,23.0,0.00,Snow,Light Snow,260,2013-02-20 09:51:00
5:51 AM,17.1,9.0,71,30.06,4.0,West,17.3,23.0,0.00,Snow,Light Snow,260,2013-02-20 10:51:00
6:51 AM,17.1,10.0,74,30.07,4.0,West,18.4,26.5,0.00,Snow,Light Snow,270,2013-02-20 11:51:00
7:48 AM,17.6,10.4,73,30.03,2.5,West,15.0,25.3,0.00,Snow,Light Snow,280,2013-02-20 12:48:00
7:51 AM,17.1,10.0,74,30.09,2.5,West,15.0,25.3,0.00,Snow,Light Snow,270,2013-02-20 12:51:00
8:11 AM,17.6,10.4,73,30.04,2.5,West,17.3,24.2,0.00,Snow,Light Snow,270,2013-02-20 13:11:00
8:51 AM,17.1,10.0,74,30.11,2.0,West,18.4,24.2,0.00,Snow,Light Snow,270,2013-02-20 13:51:00
9:51 AM,18.0,10.9,74,30.11,2.0,West,13.8,24.2,0.00,Snow,Light Snow,270,2013-02-20 14:51:00
10:51 AM,19.0,12.0,74,30.13,1.5,West,17.3,23.0,0.00,Snow,Light Snow,280,2013-02-20 15:51:00
11:49 AM,19.4,10.4,68,30.09,0.5,WNW,17.3,-,0.00,Snow,Heavy Snow,290,2013-02-20 16:49:00
11:51 AM,19.0,12.0,74,30.15,1.0,WNW,13.8,-,0.00,Snow,Light Snow,290,2013-02-20 16:51:00
12:38 PM,17.6,12.2,79,30.09,0.5,NW,17.3,25.3,0.00,Snow,Heavy Snow,310,2013-02-20 17:38:00
12:51 PM,18.0,14.0,84,30.16,0.5,NW,11.5,-,0.01,Snow,Light Snow,310,2013-02-20 17:51:00
12:53 PM,17.6,14.0,86,30.09,1.5,NW,15.0,-,0.00,Snow,Light Snow,310,2013-02-20 17:53:00
1:01 PM,17.6,12.2,79,30.10,0.2,NW,11.5,-,0.00,Snow,Heavy Snow,310,2013-02-20 18:01:00
1:10 PM,19.4,14.0,80,30.10,0.5,WNW,11.5,-,0.00,Snow,Light Snow,300,2013-02-20 18:10:00
1:20 PM,17.6,14.0,86,30.10,0.5,WNW,12.7,-,0.01,Snow,Snow,300,2013-02-20 18:20:00
1:51 PM,18.0,12.9,81,30.17,0.5,WNW,15.0,-,0.02,Snow,Snow,300,2013-02-20 18:51:00
2:02 PM,19.4,12.2,74,30.10,0.5,WNW,17.3,23.0,0.00,Snow,Light Snow,300,2013-02-20 19:02:00
2:09 PM,19.4,10.4,68,30.10,7.0,WNW,15.0,25.3,0.00,Snow,Light Snow,290,2013-02-20 19:09:00
2:51 PM,19.9,10.0,65,30.18,5.0,WNW,17.3,23.0,0.00,Snow,Light Snow,290,2013-02-20 19:51:00
3:07 PM,19.4,12.2,74,30.12,2.0,WNW,11.5,-,0.00,Snow,Light Snow,300,2013-02-20 20:07:00
3:51 PM,19.9,12.9,74,30.20,2.5,WNW,11.5,-,0.00,Snow,Light Snow,290,2013-02-20 20:51:00
4:09 PM,19.4,14.0,80,30.15,1.0,West,10.4,-,0.00,Snow,Light Snow,280,2013-02-20 21:09:00
4:16 PM,19.4,12.2,74,30.15,2.5,WNW,11.5,-,0.00,Snow,Light Snow,290,2013-02-20 21:16:00
4:37 PM,19.4,12.2,74,30.16,6.0,WNW,17.3,24.2,0.00,,Haze,290,2013-02-20 21:37:00
4:51 PM,19.9,10.9,68,30.23,8.0,WNW,17.3,20.7,0.00,,Overcast,290,2013-02-20 21:51:00
5:51 PM,19.9,12.0,71,30.23,8.0,WNW,13.8,-,N/A,,Overcast,290,2013-02-20 22:51:00
6:51 PM,19.4,12.2,74,30.23,4.0,WNW,8.1,-,0.00,Snow,Light Snow,290,2013-02-20 23:51:00
7:51 PM,19.0,15.1,85,30.25,3.0,West,6.9,-,0.00,Snow,Light Snow,280,2013-02-21 00:51:00
8:51 PM,19.0,15.1,85,30.24,4.0,West,6.9,-,0.00,Snow,Light Snow,280,2013-02-21 01:51:00
9:51 PM,19.9,14.0,78,30.25,2.0,West,9.2,-,0.00,Snow,Light Snow,270,2013-02-21 02:51:00
10:08 PM,19.4,15.8,86,30.18,4.0,West,8.1,-,0.00,Snow,Light Snow,270,2013-02-21 03:08:00
10:51 PM,19.9,15.1,81,30.24,6.0,West,9.2,-,0.00,,Haze,270,2013-02-21 03:51:00
11:51 PM,19.9,12.9,74,30.23,8.0,West,9.2,-,0.00,,Overcast,280,2013-02-21 04:51:00